Meteo pe oră la Bolshie Osetki

Astăzi, 18 Mai, Marţi

Timp Temperatura Precipitaţii Vânt Presiune Umiditate
00:00 +14°C° 0.4 mm 2 m/s 738 mmHg 97%
01:00 +14°C° 0.4 mm 2 m/s 737 mmHg 98%
02:00 +14°C° 0.4 mm 2 m/s 737 mmHg 98%
03:00 +15°C° 0.7 mm 2 m/s 737 mmHg 98%
04:00 +15°C° 0.7 mm 2 m/s 737 mmHg 98%
05:00 +15°C° 0.7 mm 1 m/s 736 mmHg 98%
06:00 +16°C° 0 mm 2 m/s 736 mmHg 97%
07:00 +17°C° 0 mm 2 m/s 737 mmHg 95%
08:00 +17°C° 0 mm 3 m/s 737 mmHg 94%
09:00 +17°C° 0.1 mm 3 m/s 737 mmHg 93%
10:00 +17°C° 0.1 mm 3 m/s 737 mmHg 92%
11:00 +17°C° 0.1 mm 3 m/s 738 mmHg 91%
12:00 +18°C° 0 mm 4 m/s 738 mmHg 83%
13:00 +20°C° 0 mm 4 m/s 738 mmHg 76%
14:00 +21°C° 0 mm 4 m/s 738 mmHg 68%
15:00 +20°C° 0.3 mm 3 m/s 738 mmHg 73%
16:00 +19°C° 0.3 mm 2 m/s 737 mmHg 79%
17:00 +19°C° 0.3 mm 2 m/s 737 mmHg 84%
18:00 +19°C° 0.5 mm 1 m/s 737 mmHg 87%
19:00 +18°C° 0.5 mm 1 m/s 737 mmHg 90%
20:00 +16°C° 0.5 mm 1 m/s 737 mmHg 93%
21:00 +16°C° 0.3 mm 1 m/s 737 mmHg 94%
22:00 +15°C° 0.3 mm 1 m/s 736 mmHg 96%
23:00 +15°C° 0.3 mm 1 m/s 736 mmHg 98%

Mâine, 19 Mai, Miercuri

Timp Temperatura Precipitaţii Vânt Presiune Umiditate
00:00 +15°C° 0.4 mm 1 m/s 736 mmHg 98%
01:00 +15°C° 0.4 mm 1 m/s 736 mmHg 98%
02:00 +15°C° 0.4 mm 1 m/s 736 mmHg 98%
03:00 +14°C° 0.7 mm 2 m/s 736 mmHg 98%
04:00 +14°C° 0.7 mm 2 m/s 736 mmHg 98%
05:00 +14°C° 0.7 mm 2 m/s 736 mmHg 98%
06:00 +14°C° 0.3 mm 2 m/s 736 mmHg 97%
07:00 +14°C° 0.3 mm 2 m/s 737 mmHg 95%
08:00 +15°C° 0.3 mm 2 m/s 737 mmHg 94%
09:00 +15°C° 0.1 mm 2 m/s 738 mmHg 90%
10:00 +16°C° 0.1 mm 2 m/s 738 mmHg 87%
11:00 +17°C° 0.1 mm 2 m/s 738 mmHg 83%
12:00 +17°C° 0.2 mm 2 m/s 738 mmHg 82%
13:00 +17°C° 0.2 mm 2 m/s 739 mmHg 80%
14:00 +17°C° 0.2 mm 3 m/s 739 mmHg 79%
15:00 +16°C° 0.1 mm 3 m/s 739 mmHg 80%
16:00 +14°C° 0.1 mm 3 m/s 739 mmHg 82%
17:00 +13°C° 0.1 mm 3 m/s 740 mmHg 84%
18:00 +13°C° 0 mm 3 m/s 740 mmHg 86%
19:00 +13°C° 0 mm 2 m/s 740 mmHg 88%
20:00 +12°C° 0 mm 2 m/s 741 mmHg 90%
21:00 +12°C° 0 mm 2 m/s 741 mmHg 91%
22:00 +10°C° 0 mm 2 m/s 741 mmHg 93%
23:00 +10°C° 0 mm 2 m/s 741 mmHg 94%

Poimâine, 20 Mai, Joi

Timp Temperatura Precipitaţii Vânt Presiune Umiditate
00:00 +10°C° 0.2 mm 3 m/s 741 mmHg 94%
01:00 +10°C° 0.2 mm 3 m/s 741 mmHg 93%
02:00 +10°C° 0.2 mm 4 m/s 740 mmHg 93%
03:00 +8°C° 0.9 mm 4 m/s 740 mmHg 94%
04:00 +8°C° 0.9 mm 4 m/s 740 mmHg 95%
05:00 +8°C° 0.9 mm 4 m/s 740 mmHg 96%
06:00 +8°C° 3.3 mm 5 m/s 740 mmHg 96%
07:00 +8°C° 3.3 mm 5 m/s 739 mmHg 96%
08:00 +8°C° 3.3 mm 6 m/s 739 mmHg 97%
09:00 +8°C° 2.8 mm 6 m/s 739 mmHg 96%
10:00 +7°C° 2.8 mm 6 m/s 738 mmHg 96%
11:00 +7°C° 2.8 mm 6 m/s 738 mmHg 96%
12:00 +6°C° 3.5 mm 7 m/s 738 mmHg 96%
13:00 +6°C° 3.5 mm 7 m/s 738 mmHg 96%
14:00 +6°C° 3.5 mm 7 m/s 738 mmHg 95%
15:00 +6°C° 2.7 mm 7 m/s 738 mmHg 95%
16:00 +6°C° 2.7 mm 7 m/s 738 mmHg 95%
17:00 +6°C° 2.7 mm 7 m/s 738 mmHg 95%
18:00 +6°C° 2.5 mm 7 m/s 738 mmHg 95%
19:00 +6°C° 2.5 mm 8 m/s 738 mmHg 94%
20:00 +6°C° 2.5 mm 8 m/s 738 mmHg 94%
21:00 +6°C° 1.6 mm 8 m/s 739 mmHg 94%
22:00 +6°C° 1.6 mm 7 m/s 739 mmHg 93%
23:00 +6°C° 1.6 mm 7 m/s 739 mmHg 93%

21 Mai, Vineri

Timp Temperatura Precipitaţii Vânt Presiune Umiditate
00:00 +6°C° 0.7 mm 7 m/s 740 mmHg 93%
01:00 +7°C° 0.7 mm 6 m/s 740 mmHg 93%
02:00 +8°C° 0.7 mm 6 m/s 741 mmHg 93%
03:00 +7°C° 0.1 mm 6 m/s 741 mmHg 93%
04:00 +6°C° 0.1 mm 5 m/s 742 mmHg 92%
05:00 +5°C° 0.1 mm 5 m/s 742 mmHg 92%
06:00 +6°C° 0 mm 5 m/s 742 mmHg 88%
07:00 +7°C° 0 mm 5 m/s 743 mmHg 83%
08:00 +8°C° 0 mm 5 m/s 743 mmHg 79%
09:00 +10°C° 0 mm 5 m/s 744 mmHg 69%
10:00 +13°C° 0 mm 5 m/s 744 mmHg 60%
11:00 +14°C° 0 mm 5 m/s 744 mmHg 50%
12:00 +15°C° 0 mm 5 m/s 745 mmHg 48%
13:00 +15°C° 0 mm 5 m/s 745 mmHg 46%
14:00 +16°C° 0 mm 5 m/s 745 mmHg 43%
15:00 +16°C° 0 mm 5 m/s 745 mmHg 46%
16:00 +15°C° 0 mm 4 m/s 745 mmHg 49%
17:00 +15°C° 0 mm 4 m/s 746 mmHg 52%
18:00 +13°C° 0 mm 4 m/s 746 mmHg 60%
19:00 +11°C° 0 mm 3 m/s 746 mmHg 68%
20:00 +9°C° 0 mm 2 m/s 747 mmHg 75%
21:00 +8°C° 0 mm 2 m/s 747 mmHg 80%
22:00 +7°C° 0 mm 2 m/s 747 mmHg 84%
23:00 +6°C° 0 mm 2 m/s 748 mmHg 89%

22 Mai, Sâmbătă

Timp Temperatura Precipitaţii Vânt Presiune Umiditate
00:00 +6°C° 0 mm 2 m/s 748 mmHg 89%
01:00 +5°C° 0 mm 2 m/s 748 mmHg 90%
02:00 +5°C° 0 mm 2 m/s 749 mmHg 90%
03:00 +5°C° 0 mm 2 m/s 749 mmHg 88%
04:00 +6°C° 0 mm 1 m/s 749 mmHg 87%
05:00 +7°C° 0 mm 1 m/s 749 mmHg 85%
06:00 +8°C° 0 mm 2 m/s 749 mmHg 78%
07:00 +10°C° 0 mm 2 m/s 749 mmHg 70%
08:00 +12°C° 0 mm 3 m/s 749 mmHg 62%
09:00 +13°C° 0 mm 3 m/s 749 mmHg 57%
10:00 +16°C° 0 mm 3 m/s 749 mmHg 53%
11:00 +17°C° 0 mm 3 m/s 749 mmHg 48%
12:00 +17°C° 0 mm 3 m/s 749 mmHg 47%
13:00 +18°C° 0 mm 4 m/s 748 mmHg 46%
14:00 +18°C° 0 mm 4 m/s 748 mmHg 45%
15:00 +18°C° 0 mm 4 m/s 748 mmHg 48%
16:00 +18°C° 0 mm 4 m/s 748 mmHg 50%
17:00 +18°C° 0 mm 3 m/s 747 mmHg 53%
18:00 +16°C° 0 mm 3 m/s 747 mmHg 62%
19:00 +13°C° 0 mm 3 m/s 747 mmHg 70%
20:00 +12°C° 0 mm 2 m/s 747 mmHg 79%
21:00 +12°C° 0 mm 2 m/s 747 mmHg 81%
22:00 +10°C° 0 mm 2 m/s 747 mmHg 83%
23:00 +10°C° 0 mm 2 m/s 747 mmHg 85%

23 Mai, Duminică

Timp Temperatura Precipitaţii Vânt Presiune Umiditate
00:00 +9°C° 0 mm 2 m/s 746 mmHg 87%
01:00 +9°C° 0 mm 2 m/s 746 mmHg 89%
02:00 +8°C° 0 mm 2 m/s 746 mmHg 91%
03:00 +9°C° 0 mm 2 m/s 746 mmHg 88%
04:00 +9°C° 0 mm 2 m/s 745 mmHg 86%
05:00 +10°C° 0 mm 2 m/s 745 mmHg 84%
06:00 +11°C° 0 mm 3 m/s 745 mmHg 78%
07:00 +13°C° 0 mm 3 m/s 744 mmHg 73%
08:00 +14°C° 0 mm 4 m/s 744 mmHg 68%
09:00 +15°C° 0.3 mm 4 m/s 743 mmHg 69%
10:00 +17°C° 0.3 mm 4 m/s 743 mmHg 70%
11:00 +17°C° 0.3 mm 4 m/s 742 mmHg 72%
12:00 +15°C° 1 mm 4 m/s 742 mmHg 78%
13:00 +14°C° 1 mm 4 m/s 742 mmHg 84%
14:00 +13°C° 1 mm 4 m/s 741 mmHg 90%
15:00 +12°C° 1.9 mm 4 m/s 742 mmHg 91%
16:00 +12°C° 1.9 mm 4 m/s 742 mmHg 92%
17:00 +12°C° 1.9 mm 4 m/s 742 mmHg 93%
18:00 +11°C° 0.4 mm 3 m/s 742 mmHg 93%
19:00 +11°C° 0.4 mm 3 m/s 743 mmHg 93%
20:00 +10°C° 0.4 mm 3 m/s 743 mmHg 93%
21:00 +10°C° 0.1 mm 3 m/s 743 mmHg 94%
22:00 +9°C° 0.1 mm 3 m/s 744 mmHg 95%
23:00 +9°C° 0.1 mm 3 m/s 745 mmHg 96%
Arată mai mult

Formular de consimțământ

Meteoprog și furnizorii noștri de servicii pot stoca și accesa date personale, precum cookies, identificatori de dispozitiv sau alte tehnologii similare pe dispozitivul dumneavoastră și procesa astfel de date pentru a personaliza conținutul și reclamele, dar și pentru a oferi caracteristici de social media și pentru a analiza traficul.

  • Stocarea și/sau accesarea informațiilor pe dispozitivul dumneavoastră

    Cookies, identificatori de dispozitiv sau alte informații pot fi stocate sau accesate pe dispozitiv în scopurile indicate mai sus.

  • Reclame și conținut personalizat, evaluarea reclamelor și a conținutului, informații despre audiențe și dezvoltarea produselor

    Reclamele și conținutul pot fi personalizate pe baza unui profil. Pot fi adăugate date suplimentare pentru a personaliza mai bine reclamele și conținutul. Performanța reclamelor și conținutului poate fi măsurată. Pot fi obținute informații despre utilizatorii care au văzut reclamele și conținutul. Aceste date pot fi utilizate pentru a dezvolta sau îmbunătăți experiența utilizatorilor, sistemele și software-ul.

Dând clic pe ‘Sunt de acord’, permiteți utilizarea cookie-urilor menționate, a identificatorilor de dispozitiv, balizelor web sau altor tehnologii similare. Setările pot fi modificate din browser-ul dispozitivului dumneavoastră.

În anumite scopuri, interesele legitime pot prima asupra consimțământului. Puteți citi mai multe informații în acest sens în Politica privind Confidențialitatea Datelor și Cookie.